Content
SEND FEEDBACK

Daily
Averages
Monthly
Summary
Canada

CALGARY, ALBERTA


Home > North America > Canada > Alberta
Elevation: 3556 feet     Latitude: 51 06N     Longitude: 114 01W

WEATHER
 
SELECT A DAY
Number of Records: 192,160;   Date Range: 1/1/95 - 7/30/14
 
SHARE

PRINT THIS DATA

[ ← Previous Day ]
WEATHER ALMANAC - JANUARY 10, 2013
[ Next Day → ]
[ °C ]   °F
Weather ElementAverageHighLow
Temperature12.8 °F21.2 °F (1:00 am)6.8 °F (9:00 pm)
Dewpoint8.7 °F17.6 °F (1:00 am)1 °F (11:00 pm)
Humidity82.8 %93 % (3:48 am)67 % (11:00 pm)
Barometer30.12 in30.30 in (10:00 pm)29.83 in (1:00 am)
Wind Speed18.9 mph24.2 mph (5:00 am)
Wind Gust29.9 mph (5:00 am)
Weather ElementAverage
Visibility4.2 mi
Wind DirectionNNW (329.7 °)

Weather ElementTotal
Precipitation---
Heating Degree Days51 (Base 65)
Averaged from 33 records on January 10, 2013
WEATHER CONDITIONS BREAKOUT
WIND DIRECTION BREAKOUT
WEATHER BY HOUR - JANUARY 10, 2013
[ °C ]   °F
Local TimeTemperatureDewpointHumidityBarometerVisibilityWind DirectionWind SpeedGust SpeedPrecipitationEventsConditions
1:00 AM21.2 °F17.6 °F86 %29.83 in15.0 miNNW (340°)19.6 mph28.8 mphOvercast
2:00 AM21.2 °F17.6 °F86 %29.88 in15.0 miNNW (340°)19.6 mph27.6 mphOvercast
3:00 AM21.2 °F17.6 °F86 %29.92 in10.0 miNorth (350°)23.0 mphOvercast
3:48 AM19.4 °F17.6 °F93 %29.93 in6.0 miNorth (350°)21.9 mphSnowLight Snow
4:00 AM19.4 °F17.6 °F93 %29.94 in6.0 miNorth (350°)20.7 mphSnowLight Snow
5:00 AM18.0 °F15.0 °F81 %29.96 in6.0 miNorth24.2 mphSnowLight Snow
5:00 AM17.6 °F14.0 °F86 %29.96 in6.0 miNorth (360°)23.0 mph29.9 mphSnowLight Snow
6:00 AM17.6 °F12.2 °F79 %30.01 in8.0 miNorth (360°)17.3 mph26.5 mphSnowLight Snow
7:00 AM15.8 °F12.2 °F86 %30.06 in6.0 miNorth (350°)19.6 mph27.6 mphSnowLight Snow
8:00 AM14.0 °F10.4 °F86 %30.07 in4.0 miNorth (360°)19.6 mphSnowLight Snow
8:15 AM14.0 °F10.4 °F86 %30.09 in2.0 miNorth (360°)18.4 mphSnowLight Snow
8:32 AM14.0 °F10.4 °F86 %30.10 in1.0 miNorth (360°)16.1 mphSnowLight Snow
9:00 AM14.0 °F10.4 °F86 %30.11 in1.0 miNorth (360°)17.3 mphSnowLight Snow
9:45 AM12.2 °F8.6 °F85 %30.14 in0.5 miNNW (340°)19.6 mph26.5 mphSnowLight Snow
10:00 AM12.2 °F8.6 °F85 %30.14 in0.5 miNorth (350°)16.1 mphSnowLight Snow
11:00 AM12.2 °F8.6 °F85 %30.16 in0.5 miNorth (360°)16.1 mphSnowLight Snow
11:00 AM12.0 °F8.0 °F77 %30.16 in0.0 miNorth16.1 mphSnowLight Snow
12:00 PM12.2 °F6.8 °F79 %30.16 in1.0 miNorth (360°)18.4 mphSnowLight Snow
1:00 PM10.4 °F6.8 °F85 %30.15 in2.0 miNorth (360°)20.7 mphSnowLight Snow
2:00 PM10.4 °F6.8 °F85 %30.15 in2.0 miNorth (350°)19.6 mphSnowLight Snow
2:30 PM10.4 °F5.0 °F79 %30.17 in1.0 miNorth (350°)19.6 mphSnowLight Snow
3:00 PM10.4 °F5.0 °F79 %30.17 in1.0 miNorth (350°)18.4 mphSnowLight Snow
4:00 PM10.4 °F5.0 °F79 %30.19 in1.0 miNorth (350°)18.4 mphSnowLight Snow
5:00 PM10.4 °F5.0 °F79 %30.22 in1.0 miNorth (350°)21.9 mphSnowLight Snow
5:00 PM10.0 °F5.0 °F71 %30.22 in1.0 miNorth (350°)20.7 mphSnowLight Snow
6:00 PM8.6 °F5.0 °F85 %30.24 in2.0 miNorth (360°)20.7 mphSnowLight Snow
6:51 PM8.6 °F5.0 °F85 %30.25 in1.0 miNorth (360°)19.6 mph26.5 mphSnowLight Snow
7:00 PM8.6 °F5.0 °F85 %30.26 in1.0 miNorth (360°)17.3 mphSnowLight Snow
8:00 PM8.6 °F3.2 °F79 %30.27 in1.2 miNorth (350°)17.3 mphSnowLight Snow
9:00 PM6.8 °F3.2 °F85 %30.28 in1.5 miNNW (340°)17.3 mphSnowLight Snow
10:00 PM6.8 °F1.4 °F79 %30.30 in5.0 miNNW (340°)17.3 mphSnowLight Snow
11:00 PM7.0 °F1.0 °F67 %30.30 in15.0 miNNW (330°)15.0 mphSnowLight Snow
11:00 PM6.8 °F1.4 °F79 %30.30 in15.0 miNNW (330°)13.8 mph21.9 mphSnowLight Snow
Hourly data recorded from CYYC, located miles away from Calgary, Alberta







STORIES FROM OUR PARTNERS